Hauptseite
METAR-TAF:

METAR-TAF

Flughäfen :

Colmar, Frankreich

Flughafen Colmar

Breite: 48-06-37N, Länge: 7-21-33E, Höhe: 191 m

Beobachtung

Neuester Wetterbericht von vor 18 Minuten, um 18:30 UTC
Wind 4 kt aus Süd/Südwest
Temperatur 11°C
Luftfeuchtigkeit 87%
Luftdruck 1025 hPa
Sichtweite 10 km oder mehr
Leicht bewölkt in der Höhe von 3800 ft
Aufgelockert bewölkt in der Höhe von 5600 ft
Durchbrochene Bewölkung in der Höhe von 7200 ft
Leichtregen

METAR: LFGA 231830Z AUTO 20004KT 9999 -RA FEW038 SCT056 BKN072 11/09 Q1025

Zeit: 20:48 (18:48 UTC)


TAF: fehlend

Wetterbeobachtungen und Prognosen von mehr als 4000 Flughäfen (METAR und TAF Bericht).

Die verfügbaren Stationen werden durch gelbe und rote Markierungen auf der Karte dargestellt.

Führen Sie die Maus auf sie, um den Namen der Station zu sehen.

Darauf klicken, um die Beobachtung von Wetterbeobachtungen und Prognosen zu sehen.

Um die Karte zu ändern : klicken Sie auf den grünen Tasten mit einem schwarzen Kreuz Zum Vergrößern, auf den grünen Button mit einem Gedankenstrich zu verkleinern, oder auf die grünen Pfeile für benachbarte Karten.


METAR-TAF: